Weather History for Rhodes, Greece

Change the Weather History Date:

Monday, March 25, 2013

  Actual Average Record
Temperature  
Mean Temperature 55 °F -  
Max Temperature 61 °F 67 °F 69 °F (2001)
Min Temperature 49 °F 54 °F 44 °F (1998)
Degree Days  
Heating Degree Days 10    
Growing Degree Days 5 (Base 50)    
Moisture  
Dew Point 50 °F    
Average Humidity 76    
Maximum Humidity 94    
Minimum Humidity 55    
Precipitation  
Precipitation 0.00 in 0.04 in - ()
Sea Level Pressure  
Sea Level Pressure 29.98 in    
Wind  
Wind Speed 9 mph ()    
Max Wind Speed 25 mph    
Max Gust Speed 48 mph    
Visibility 6.2 miles    
Events      
Averages and records for this station are not official NWS values.
T = Trace of Precipitation, MM = Missing Value Source: Averaged Metar Reports

Daily Weather History Graph

Daily Weather History Graph

Search for Another Location

Airport:

Trip Planner

Search our weather history database for the weather conditions in past years. The results will help you decide how hot, cold, wet, or windy it might be!

Date:

Astronomy

Mar. 25, 2013 Rise Set
Actual Time 6:04 AM EET 6:23 PM EET
Civil Twilight 5:38 AM EET 6:49 PM EET
Nautical Twilight 5:08 AM EET 7:19 PM EET
Astronomical Twilight 4:37 AM EET 7:50 PM EET
Moon 4:36 PM EET (3/25) 4:33 AM EET (3/25)
Length of Visible Light 13h 11m
Length of Day
12h 19m
Waxing Gibbous, 95% of the Moon is Illuminated
Mar 25
Waxing Gibbous
Mar 27
Full
Apr 3
Last Quarter
Apr 10
New
Apr 18
First Quarter

Hourly Weather History & Observations

Time (EET) Temp. Dew Point Humidity Pressure Visibility Wind Dir Wind Speed Gust Speed Precip Events Conditions
12:20 AM 51.8 °F 48.2 °F 88% 30.06 in 6.2 mi Variable 3.5 mph - N/A   Partly Cloudy
12:50 AM 50.0 °F 48.2 °F 94% 30.06 in 6.2 mi East 4.6 mph - N/A   Partly Cloudy
1:20 AM 50.0 °F 48.2 °F 94% 30.06 in 6.2 mi ENE 4.6 mph - N/A   Partly Cloudy
1:50 AM 50.0 °F 48.2 °F 94% 30.06 in 6.2 mi ENE 3.5 mph - N/A   Partly Cloudy
2:00 AM 50 °F 49 °F 93% 30.08 in 6 mi ENE 3.5 mph - -   Scattered Clouds
2:20 AM 50.0 °F 48.2 °F 94% 30.06 in 6.2 mi Variable 6.9 mph - N/A   Partly Cloudy
2:50 AM 50.0 °F 48.2 °F 94% 30.06 in 6.2 mi East 2.3 mph - N/A   Partly Cloudy
3:20 AM 50.0 °F 48.2 °F 94% 30.04 in 6.2 mi East 10.4 mph - N/A   Scattered Clouds
3:50 AM 50.0 °F 48.2 °F 94% 30.04 in 6.2 mi East 6.9 mph - N/A   Scattered Clouds
4:20 AM 50.0 °F 48.2 °F 94% 30.04 in 6.2 mi NE 5.8 mph - N/A   Scattered Clouds
4:50 AM 51.8 °F 50.0 °F 94% 30.04 in 6.2 mi East 9.2 mph - N/A   Scattered Clouds
5:20 AM 51.8 °F 50.0 °F 94% 30.04 in 6.2 mi NE 8.1 mph - N/A   Scattered Clouds
5:50 AM 53.6 °F 50.0 °F 88% 30.04 in 6.2 mi East 8.1 mph 19.6 mph N/A   Scattered Clouds
6:20 AM 53.6 °F 50.0 °F 88% 30.04 in 6.2 mi ESE 10.4 mph 21.9 mph N/A   Scattered Clouds
6:50 AM 53.6 °F 51.8 °F 94% 30.04 in 6.2 mi ESE 15.0 mph 27.6 mph N/A   Scattered Clouds
7:20 AM 53.6 °F 51.8 °F 94% 30.04 in 6.2 mi ESE 11.5 mph - N/A   Scattered Clouds
7:50 AM 59.0 °F 48.2 °F 67% 30.04 in 6.2 mi ESE 11.5 mph 23.0 mph N/A   Mostly Cloudy
8:00 AM 59 °F 49 °F 59% 30.05 in 6 mi ESE 11.5 mph - -   Partly Cloudy
8:20 AM 60.8 °F 48.2 °F 63% 30.04 in 6.2 mi SE 16.1 mph 27.6 mph N/A   Mostly Cloudy
8:50 AM 60.8 °F 48.2 °F 63% 30.04 in 6.2 mi SE 19.6 mph 31.1 mph N/A   Mostly Cloudy
9:20 AM 60.8 °F 48.2 °F 63% 30.04 in 6.2 mi SE 16.1 mph 27.6 mph N/A   Mostly Cloudy
9:50 AM 62.6 °F 50.0 °F 63% 30.04 in 6.2 mi SE 13.8 mph 25.3 mph N/A   Mostly Cloudy
10:20 AM 62.6 °F 50.0 °F 63% 30.04 in 6.2 mi SE 15.0 mph 26.5 mph N/A   Mostly Cloudy
10:50 AM 60.8 °F 48.2 °F 63% 30.04 in 6.2 mi ESE 11.5 mph 23.0 mph N/A   Mostly Cloudy
11:20 AM 60.8 °F 48.2 °F 63% 30.04 in 6.2 mi ESE 16.1 mph 27.6 mph N/A   Mostly Cloudy
11:50 AM 60.8 °F 50.0 °F 68% 30.04 in 6.2 mi ESE 11.5 mph 23.0 mph N/A   Mostly Cloudy
12:20 PM 60.8 °F 50.0 °F 68% 30.04 in 6.2 mi ESE 11.5 mph 23.0 mph N/A   Mostly Cloudy
12:50 PM 60.8 °F 50.0 °F 68% 30.01 in 6.2 mi ESE 11.5 mph 23.0 mph N/A   Overcast
1:20 PM 60.8 °F 50.0 °F 68% 29.98 in 6.2 mi ESE 12.7 mph 24.2 mph N/A   Overcast
1:50 PM 60.8 °F 50.0 °F 68% 29.98 in 6.2 mi SE 15.0 mph 26.5 mph N/A   Overcast
2:00 PM 61 °F 49 °F 55% 29.99 in 6 mi SE 15.0 mph - -   Overcast
2:20 PM 60.8 °F 50.0 °F 68% 29.98 in 6.2 mi SE 11.5 mph 32.2 mph N/A   Overcast
2:50 PM 60.8 °F 50.0 °F 68% 29.95 in 6.2 mi SE 16.1 mph 31.1 mph N/A   Overcast
3:20 PM 60.8 °F 50.0 °F 68% 29.95 in 6.2 mi SE 15.0 mph 26.5 mph N/A   Overcast
3:50 PM 60.8 °F 50.0 °F 68% 29.92 in 6.2 mi ESE 12.7 mph - N/A   Overcast
4:20 PM 60.8 °F 50.0 °F 68% 29.92 in 6.2 mi SE 15.0 mph 26.5 mph N/A   Overcast
4:50 PM 60.8 °F 50.0 °F 68% 29.95 in 6.2 mi ESE 10.4 mph 21.9 mph N/A   Overcast
5:20 PM 60.8 °F 50.0 °F 68% 29.95 in 6.2 mi East 10.4 mph - N/A   Overcast
5:50 PM 59.0 °F 51.8 °F 77% 29.89 in 6.2 mi ESE 19.6 mph 39.1 mph N/A   Overcast
6:20 PM 59.0 °F 51.8 °F 77% 29.95 in 6.2 mi Variable 10.4 mph - N/A   Overcast
6:50 PM 59.0 °F 51.8 °F 77% 29.95 in 6.2 mi East 8.1 mph - N/A   Overcast
7:20 PM 59.0 °F 51.8 °F 77% 29.92 in 6.2 mi ESE 15.0 mph 26.5 mph N/A   Overcast
7:50 PM 59.0 °F 50.0 °F 72% 29.92 in 6.2 mi ESE 15.0 mph 26.5 mph N/A   Overcast
8:00 PM 60 °F 49 °F 59% 29.92 in 6 mi ESE 15.0 mph - -   Overcast
8:20 PM 59.0 °F 50.0 °F 72% 29.92 in 6.2 mi SE 15.0 mph 26.5 mph N/A   Overcast
8:50 PM 59.0 °F 50.0 °F 72% 29.89 in 6.2 mi East 10.4 mph 21.9 mph N/A   Overcast
9:20 PM 59.0 °F 50.0 °F 72% 29.92 in 6.2 mi NNE 11.5 mph - N/A   Overcast
9:50 PM 60.8 °F 50.0 °F 68% 29.83 in 6.2 mi ENE 25.3 mph 48.3 mph N/A   Overcast
10:20 PM 60.8 °F 50.0 °F 68% 29.80 in 6.2 mi Variable 10.4 mph 26.5 mph N/A   Overcast
10:50 PM 59.0 °F 50.0 °F 72% 29.80 in 6.2 mi Variable 9.2 mph 26.5 mph N/A   Overcast
11:20 PM 59.0 °F 50.0 °F 72% 29.80 in 6.2 mi Variable 9.2 mph 26.5 mph N/A   Overcast
11:50 PM 60.8 °F 51.8 °F 72% 29.77 in 6.2 mi East 16.1 mph 27.6 mph N/A   Overcast